Location: Greenwich
(51.4790°N, 0.0090°E)
Time: 14:37:48
(UTC+01:00)

Altair - Pass Details

Date: 18 June 2025
Orbit: 1502 x 1682 km, 47.2° (Epoch: 19 July)

Event Time Altitude Azimuth Distance (km) Brightness Sun altitude
Rises 02:59:25 0° 260° (W) 4,670 9.7 -10.7°
Reaches altitude 10° 03:02:26 10° 258° (WSW) 3,706 9.1 -10.5°
Maximum altitude 03:11:43 70° 178° (S) 1,660 7.5 -9.8°
Drops below altitude 10° 03:21:24 10° 98° (E) 3,846 9.9 -9.0°
Sets 03:24:34 0° 96° (E) 4,855 10.5 -8.8°
